Millbury, Ohio, United States (43447)
Lat: 41.57N, Lon: 83.42W
Wx Zone: OHZ006
Local Info
Past Weather Observations for Today

NOTE: This archive is for the closest National Weather Service station to Millbury. Information may differ from the station used for current weather conditions.

Click here for Long-term Archive

Time Weather Temperature Dewpoint Humidity Pressure Winds Precip Visibility
13:53
Overcast
57°F / 14°C 48°F / 9°C 72% 29.98 in
(1015 mb)
NNW 5.8 mph
(NNW 9 kph)
- 10SM
12:53
Overcast
57°F / 14°C 50°F / 10°C 77% 29.98 in
(1015 mb)
N 8.1 mph
(N 13 kph)
- 10SM
11:53
Overcast
57°F / 14°C 50°F / 10°C 77% 29.98 in
(1015 mb)
N 4.6 mph
(N 7 kph)
- 10SM
10:53
Overcast
55°F / 13°C 48°F / 9°C 77% 29.98 in
(1015 mb)
NNW 4.6 mph
(NNW 7 kph)
- 10SM
10:20
Overcast
55°F / 13°C 48°F / 9°C 77% 29.98 in
(1015 mb)
NNW 8.1 mph
(NNW 13 kph)
- 10SM
09:53
Overcast
55°F / 13°C 48°F / 9°C 77% 29.98 in
(1015 mb)
NW 8.1 mph
(NW 13 kph)
- 10SM
09:07
Overcast
54°F / 12°C 48°F / 9°C 82% 29.98 in
(1015 mb)
NW 8.1 mph
(NW 13 kph)
- 10SM
08:53
Overcast
55°F / 13°C 48°F / 9°C 77% 29.98 in
(1015 mb)
N 9.2 mph
(N 15 kph)
- 10SM
08:07
Overcast
54°F / 12°C 48°F / 9°C 82% 29.98 in
(1015 mb)
NW 10.4 mph
(NW 17 kph)
- 10SM
07:53
Overcast
54°F / 12°C 48°F / 9°C 82% 29.98 in
(1015 mb)
NW 8.1 mph
(NW 13 kph)
- 10SM
06:53
Overcast
54°F / 12°C 50°F / 10°C 88% 29.98 in
(1015 mb)
NNW 10.4 mph
(NNW 17 kph)
- 10SM
06:32
Overcast
54°F / 12°C 52°F / 11°C 94% 29.98 in
(1015 mb)
NNW 12.7 mph
(NNW 20 kph)
- 10SM
06:25
Overcast
55°F / 13°C 52°F / 11°C 88% 29.95 in
(1014 mb)
NNW 11.5 mph
(NNW 19 kph)
- 10SM
06:14
Overcast
55°F / 13°C 52°F / 11°C 88% 29.95 in
(1014 mb)
NNW 10.4 mph
(NNW 17 kph)
- 10SM
05:53
Overcast
55°F / 13°C 52°F / 11°C 88% 29.95 in
(1014 mb)
NNW 10.4 mph
(NNW 17 kph)
0.02 in
(0.51 mm)
10SM
05:15
Overcast
57°F / 14°C 54°F / 12°C 88% 29.92 in
(1013 mb)
NNW 11.5 mph
(NNW 19 kph)
0.01 in
(0.25 mm)
10SM
05:02
Overcast
57°F / 14°C 54°F / 12°C 88% 29.92 in
(1013 mb)
NNW 9.2 mph
(NNW 15 kph)
- 10SM
04:53
Overcast
57°F / 14°C 54°F / 12°C 88% 29.92 in
(1013 mb)
NNW 8.1 mph
(NNW 13 kph)
0.02 in
(0.51 mm)
10SM
04:37
Overcast
Heavy Rain
57°F / 14°C 55°F / 13°C 94% 29.92 in
(1013 mb)
NW 10.4 mph
(NW 17 kph)
0.02 in
(0.51 mm)
6SM
04:15
Overcast
Light Rain
61°F / 16°C 57°F / 14°C 88% 29.92 in
(1013 mb)
NW 18.4 mph
(NW 30 kph)
0.01 in
(0.25 mm)
6SM
04:05
Overcast
Rain
63°F / 17°C 59°F / 15°C 88% 29.92 in
(1013 mb)
NW 11.5 mph
(NW 19 kph)
0.01 in
(0.25 mm)
5SM
03:53
Overcast
Fog And Mist
63°F / 17°C 59°F / 15°C 88% 29.89 in
(1012 mb)
NW 6.9 mph
(NW 11 kph)
0.03 in
(0.76 mm)
6SM
02:53
Overcast
63°F / 17°C 57°F / 14°C 83% 29.89 in
(1012 mb)
NW 9.2 mph
(NW 15 kph)
- 10SM
01:53
Overcast
61°F / 16°C 54°F / 12°C 77% 29.89 in
(1012 mb)
SSW 5.8 mph
(SSW 9 kph)
- 10SM
00:53
Mostly Cloudy
61°F / 16°C 54°F / 12°C 77% 29.89 in
(1012 mb)
SSW 3.5 mph
(SSW 6 kph)
- 10SM
Time Weather Temperature Dewpoint Humidity Pressure Winds Precip Visibility


Weather for websites

WeatherForYou.com, LLC is not responsible for any damages or problems caused by this service. Current weather conditions are obtained from the closest station including government and personal stations which may have varying degrees of accuracy. Weather forecasts are derived from the NOAA NDFD. Like all things, this site belongs to Jesus Christ... He just trusts me to maintain it. If you have any questions or comments email webmaster@weatherforyou.com

Copyright © 2014, WeatherForYou.com LLC. All rights reserved.